Weather History for KFHU - September, 2013

Change the Weather History Date:

Sunday, September 22, 2013

  Actual Average Record
Temperature  
Mean Temperature 73 °F -  
Max Temperature 84 °F 84 °F 95 °F (1989)
Min Temperature 62 °F 64 °F 48 °F (1985)
Cooling Degree Days 8    
Growing Degree Days 23 (Base 50)    
Moisture  
Dew Point 54 °F    
Average Humidity 52    
Maximum Humidity 73    
Minimum Humidity 33    
Precipitation  
Precipitation 0.00 in - - ()
Sea Level Pressure  
Sea Level Pressure 29.72 in    
Wind  
Wind Speed 7 mph (WSW)    
Max Wind Speed 22 mph    
Max Gust Speed 33 mph    
Visibility 10 miles    
Events      
Averages and records for this station are not official NWS values.
T = Trace of Precipitation, MM = Missing Value Source: NWS Daily Summary

Daily Weather History Graph

Daily Weather History Graph

Search for Another Location

Airport or City:

Trip Planner

Search our weather history database for the weather conditions in past years. The results will help you decide how hot, cold, wet, or windy it might be!

Date:

Astronomy

Sep. 22, 2013 Rise Set
Actual Time 6:09 AM MST 6:17 PM MST
Civil Twilight 5:45 AM MST 6:41 PM MST
Nautical Twilight 5:17 AM MST 7:10 PM MST
Astronomical Twilight 4:48 AM MST 7:38 PM MST
Moon 8:25 PM MST (9/22) 9:18 AM MST (9/22)
Length of Visible Light 12h 56m
Length of Day
12h 07m
Waning Gibbous, 88% of the Moon is Illuminated
Sep 22
Waning Gibbous
Sep 26
Last Quarter
Oct 4
New
Oct 11
First Quarter
Oct 18
Full

Hourly Weather History & Observations

Time (MST) Temp. Heat Index Dew Point Humidity Pressure Visibility Wind Dir Wind Speed Gust Speed Precip Events Conditions
12:56 AM 68.0 °F - 55.0 °F 63% 29.76 in 10.0 mi WSW 6.9 mph - N/A   Scattered Clouds
1:56 AM 71.1 °F - 54.0 °F 55% 29.73 in 10.0 mi Calm Calm - N/A   Scattered Clouds
2:56 AM 69.1 °F - 57.0 °F 65% 29.72 in 10.0 mi Calm Calm - N/A   Mostly Cloudy
3:56 AM 68.0 °F - 55.9 °F 65% 29.72 in 10.0 mi SSE 4.6 mph - N/A   Mostly Cloudy
4:56 AM 66.0 °F - 57.0 °F 73% 29.73 in 10.0 mi WNW 5.8 mph - N/A   Mostly Cloudy
5:56 AM 66.0 °F - 55.9 °F 70% 29.73 in 10.0 mi Calm Calm - N/A   Partly Cloudy
6:56 AM 66.9 °F - 57.0 °F 70% 29.75 in 10.0 mi Calm Calm - N/A   Clear
7:56 AM 71.1 °F - 57.0 °F 61% 29.75 in 10.0 mi Calm Calm - N/A   Clear
8:56 AM 75.0 °F - 57.0 °F 53% 29.75 in 10.0 mi NW 3.5 mph - N/A   Clear
9:56 AM 80.1 °F 80.6 °F 57.9 °F 47% 29.74 in 10.0 mi SW 9.2 mph - N/A   Partly Cloudy
10:56 AM 81.0 °F 81.0 °F 57.0 °F 44% 29.73 in 10.0 mi WSW 15.0 mph 21.9 mph N/A   Clear
11:56 AM 82.9 °F 82.0 °F 55.0 °F 38% 29.71 in 10.0 mi West 12.7 mph 24.2 mph N/A   Clear
12:56 PM 84.0 °F - 52.0 °F 33% 29.69 in 10.0 mi SW 13.8 mph 33.4 mph N/A   Clear
1:56 PM 82.9 °F - 52.0 °F 34% 29.66 in 10.0 mi SW 15.0 mph 29.9 mph N/A   Partly Cloudy
2:56 PM 82.9 °F 81.9 °F 54.0 °F 37% 29.67 in 10.0 mi WSW 18.4 mph 27.6 mph N/A   Mostly Cloudy
3:56 PM 80.1 °F 80.1 °F 55.0 °F 42% 29.67 in 10.0 mi WSW 16.1 mph 26.5 mph N/A   Scattered Clouds
4:56 PM 80.1 °F - 51.1 °F 36% 29.67 in 10.0 mi West 21.9 mph 28.8 mph N/A   Partly Cloudy
5:56 PM 78.1 °F - 51.1 °F 39% 29.69 in 10.0 mi WSW 20.7 mph 26.5 mph N/A   Clear
6:56 PM 75.0 °F - 48.9 °F 40% 29.71 in 10.0 mi West 11.5 mph - N/A   Clear
7:56 PM 71.1 °F - 51.1 °F 49% 29.74 in 10.0 mi West 6.9 mph - N/A   Clear
8:56 PM 66.9 °F - 53.1 °F 61% 29.76 in 10.0 mi West 6.9 mph - N/A   Clear
9:56 PM 66.9 °F - 52.0 °F 59% 29.75 in 10.0 mi WNW 11.5 mph - N/A   Clear
10:55 PM 62.6 °F - 51.8 °F 68% 29.77 in 10.0 mi West 9.2 mph - N/A   Clear
11:55 PM 66.2 °F - 44.6 °F 46% 29.76 in 10.0 mi WSW 9.2 mph - N/A   Clear